OPS 5712 (P/L 153)

Last updated on Wed Aug 19 2026 00:03:44 GMT+0000 (Coordinated Universal Time)

1 02874U 67053H 26230.49482341 -.00000018 00000+0 25518-4 0 9994 2 02874 69.9763 341.7525 0004982 127.6073 232.5485 13.96836021 15496
UTC large
Height (km)
Speed (km/s)
/
Latitude / Longitude
Inclination (degrees)
Orbital Period (minutes)
Azimuth
Elevation
Range (km)
Doppler Factor

Next 0 passes for location: London (51.5072 / 0.1276)

No passes found over London.
OPS 5712 (P/L 153)